Regional Weather Roundup
Issued by NWS Mobile, AL

Home | Current Version | Previous Version | Text Only | Print | Product List | Glossary On
Versions: 1 2 3 4 5 6 7 8 9 10 11 12 13 14 15 16 17 18 19 20 21 22 23 24 25 26 27
000
ASUS44 KMOB 250512
RWRMOB
REGIONAL WEATHER ROUNDUP
NATIONAL WEATHER SERVICE MOBILE AL
1200 AM CDT TUE APR 25 2017

NOTE: "FAIR" INDICATES FEW OR NO CLOUDS BELOW 12,000 FEET WITH NO
      SIGNIFICANT WEATHER AND/OR OBSTRUCTIONS TO VISIBILITY.

  * THESE STATIONS ARE PART OF THE UNIVERSITY OF SOUTH ALABAMA
    MESONET AND ARE NOT UNDER NWS OR FAA QUALITY CONTROL.

ALZ061>064-250600-
COASTAL ALABAMA

CITY           SKY/WX    TMP DP  RH WIND       PRES   REMARKS
MOBILE REG APT CLEAR     55  52  89 CALM      29.82S
BROOKLEY FIELD CLEAR     57  54  89 SW3       29.83R
USA CAMPUS*      N/A     55  54  94 CALM      29.82S
DOG RIVER*       N/A     57  55  94 CALM      30.51R


CITY           SKY/WX    TMP DP  RH WIND       PRES   REMARKS
GULF SHORES    CLEAR     53  53 100 CALM      29.82R

$$

ALZ051>060-250600-
INTERIOR SOUTHWEST AND SOUTH CENTRAL ALABAMA

CITY           SKY/WX    TMP DP  RH WIND       PRES   REMARKS
GREENVILLE     CLEAR     58  52  80 CALM      29.78F
EVERGREEN      CLEAR     52  50  93 CALM      29.80F
ATMORE*          N/A     54  52  94 CALM      29.83R
ANDALUSIA/OPP  PTCLDY    60  53  77 W3        29.79F
ANDALUSIA*       N/A     54  54 100 W3        29.79F
FLORALA APT    PTCLDY    57  51  80 CALM      29.81F
FLORALA*         N/A     55  52  88 CALM      30.45F

$$

FLZ001>006-250600-
WESTERN FLORIDA PANHANDLE

CITY           SKY/WX    TMP DP  RH WIND       PRES   REMARKS
PENSACOLA      CLEAR     58  51  78 W3        29.81R
NAS PENSACOLA  CLEAR     52  50  93 CALM      29.81R
MILTON         LGT RAIN  51  50  96 CALM      29.81S
WHTNG S FIELD  CLEAR     55  51  86 CALM      29.81S


CITY           SKY/WX    TMP DP  RH WIND       PRES   REMARKS
JAY*             N/A     54  52  94 CALM      29.81S
DUKE FIELD     CLEAR     55  50  83 W3        29.80F
CRESTVIEW      CLEAR     52  50  93 CALM      29.81F
VALPARAISO     CLEAR     56  51  84 CALM      29.80F
DESTIN         CLEAR     62  57  83 CALM      29.80F

$$

MSZ076-079-250600-
INTERIOR SOUTHEAST MISSISSIPPI

CITY           SKY/WX    TMP DP  RH WIND       PRES   REMARKS
LEAKESVILLE*   NOT AVBL
AGRICOLA*        N/A     55  54  94 CALM      29.81S

$$

MARINE OBSERVATIONS

STATION/POSITION TIME  TEMP    WIND        PRES    WAVE
                       AIR SEA DIR/SP/G            HT/PER
                 (UTC) (F)     (DEG/KT/KT) (MB)    (FT/S)
PASCAGOULA       0448   65      70/  4/  5 1009.5R
PETIT BOIS ISLND 0448   67      90/  8/ 10 1010.2R
GRAND BAY        0345   67      80/  8     1010.0S
KATRINA CUT      0430   68      80/  8     1009.5S
CEDAR POINT      0430   67      80/  7     1009.1S
E DAUPHIN ISLAND 0400   67      70/  9/ 11 1009.3S
MIDDLE BAY LIGHT 0400   66     110/  6     1009.5
USCG MOBILE BAY  0448   62 76  270/  2/  2 1010.0S
STATE DOCKS      0448   63 75              1009.3S
MEAHER PARK      0430   62      60/  1     1009.1S
FORT MORGAN      0448   67      60/  7/  8   N/A
12 S ORANGE BCH  0450   67 73   20/  4/  6 1009.4R   1/ 5
PENSACOLA BAY    0448   62 73  360/  3/  4 1009.6R
64 S DAUPHIN ISL 0500   71 74  250/ 12/ 14 1009.5
67 S FORT MORGAN 0430   70     260/  6     1009.5S

$$

SELECTED LOCATIONS ACROSS THE REGION

CITY           SKY/WX    TMP DP  RH WIND       PRES   REMARKS
NEW ORLEANS    PTCLDY    62  55  77 W6        29.82R
GULFPORT       CLEAR     63  58  83 CALM      29.81R
PASCAGOULA AP  CLEAR     54  52  93 CALM      29.82R
PASCAGOULA*    NOT AVBL
HATTIESBURG    CLEAR     57  54  89 CALM      29.83R
LAUREL         CLEAR     55  52  88 CALM      29.83R
MERIDIAN       CLEAR     54  52  93 CALM      29.81S
JACKSON        CLEAR     57  54  89 CALM      29.81S
MONTGOMERY     PTCLDY    62  52  69 W7        29.78S
TROY           MOCLDY    61  55  81 W5        29.79S
ASHFORD*         N/A     54  54 100 W3        29.79F
DOTHAN         PTCLDY    61  55  81 W8        29.81S
PANAMA CITY    CLEAR     55  51  86 CALM      29.79F

$$





USA.gov is the U.S. government's official web portal to all federal, state and local government web resources and services.